Weather History for Richmond, KY

Change the Weather History Date:

Friday, March 8, 2013

  Actual Average (KLOZ) Record (KLOZ)
Temperature  
Mean Temperature 36 °F 45 °F  
Max Temperature 46 °F 56 °F 82 °F (1974)
Min Temperature 26 °F 34 °F -1 °F (1960)
Degree Days  
Heating Degree Days 29 20  
Month to date heating degree days 167  
Since 1 July heating degree days 3443  
Cooling Degree Days 0 0  
Month to date cooling degree days 0  
Year to date cooling degree days 0  
Moisture  
Dew Point 27 °F    
Average Humidity 70    
Maximum Humidity 93    
Minimum Humidity 50    
Precipitation  
Precipitation 0.00 in 0.13 in 1.70 in (1995)
Month to date precipitation 1.07  
Year to date precipitation 8.32  
Sea Level Pressure  
Sea Level Pressure 30.37 in    
Wind  
Wind Speed 3 mph (NE)    
Max Wind Speed 9 mph    
Max Gust Speed -    
Visibility 10 miles    
Events      
T = Trace of Precipitation, MM = Missing Value Source: NWS Daily Summary

Daily Weather History Graph

Daily Weather History Graph

Search for Another Location

Airport:

Trip Planner

Search our weather history database for the weather conditions in past years. The results will help you decide how hot, cold, wet, or windy it might be!

Date:

Astronomy

Mar. 08, 2013 Rise Set
Actual Time 6:58 AM EST 6:38 PM EST
Civil Twilight 6:32 AM EST 7:04 PM EST
Nautical Twilight 6:01 AM EST 7:34 PM EST
Astronomical Twilight 5:31 AM EST 8:05 PM EST
Moon 4:39 AM EST (3/8) 3:35 PM EST (3/8)
Length of Visible Light 12h 32m
Length of Day
11h 39m
Waning Crescent, 12% of the Moon is Illuminated
Mar 8
Waning Crescent
Mar 11
New
Mar 19
First Quarter
Mar 27
Full
Apr 3
Last Quarter

Hourly Weather History & Observations

Time (EST) Temp. Windchill Dew Point Humidity Pressure Visibility Wind Dir Wind Speed Gust Speed Precip Events Conditions
12:15 AM 32.0 °F 28.7 °F 24.8 °F 75% 30.36 in 10.0 mi ENE 3.5 mph - N/A   Overcast
12:35 AM 32.0 °F 28.7 °F 24.8 °F 75% 30.35 in 10.0 mi East 3.5 mph - N/A   Overcast
12:55 AM 32.0 °F 28.7 °F 24.8 °F 75% 30.35 in 10.0 mi East 3.5 mph - N/A   Overcast
1:15 AM 32.0 °F - 24.8 °F 75% 30.35 in 10.0 mi Calm Calm - N/A   Scattered Clouds
1:35 AM 32.0 °F - 24.8 °F 75% 30.35 in 10.0 mi Calm Calm - N/A   Scattered Clouds
1:55 AM 32.0 °F - 24.8 °F 75% 30.36 in 10.0 mi Calm Calm - N/A   Mostly Cloudy
2:15 AM 30.2 °F - 24.8 °F 80% 30.36 in 10.0 mi Calm Calm - N/A   Overcast
2:35 AM 30.2 °F - 24.8 °F 80% 30.36 in 10.0 mi Calm Calm - N/A   Overcast
3:15 AM 30.2 °F - 24.8 °F 80% 30.36 in 10.0 mi Calm Calm - N/A   Overcast
3:35 AM 30.2 °F - 24.8 °F 80% 30.35 in 10.0 mi Calm Calm - N/A   Mostly Cloudy
3:55 AM 30.2 °F - 24.8 °F 80% 30.35 in 10.0 mi Calm Calm - N/A   Scattered Clouds
4:15 AM 28.4 °F - 24.8 °F 86% 30.35 in 10.0 mi Calm Calm - N/A   Clear
4:35 AM 28.4 °F - 24.8 °F 86% 30.35 in 10.0 mi Calm Calm - N/A   Clear
4:55 AM 26.6 °F - 24.8 °F 93% 30.35 in 10.0 mi Calm Calm - N/A   Clear
5:15 AM 26.6 °F 22.6 °F 24.8 °F 93% 30.37 in 7.0 mi West 3.5 mph - N/A   Clear
5:35 AM 26.6 °F - 24.8 °F 93% 30.38 in 7.0 mi Calm Calm - N/A   Clear
6:15 AM 26.6 °F - 24.8 °F 93% 30.40 in 7.0 mi Calm Calm - N/A   Scattered Clouds
6:35 AM 26.6 °F - 24.8 °F 93% 30.41 in 10.0 mi Calm Calm - N/A   Scattered Clouds
6:55 AM 26.6 °F 22.6 °F 24.8 °F 93% 30.41 in 10.0 mi North 3.5 mph - N/A   Clear
7:15 AM 26.6 °F 22.6 °F 24.8 °F 93% 30.41 in 7.0 mi NNE 3.5 mph - N/A   Clear
7:35 AM 28.4 °F 24.6 °F 24.8 °F 86% 30.41 in 10.0 mi NNE 3.5 mph - N/A   Clear
7:55 AM 28.4 °F - 24.8 °F 86% 30.42 in 10.0 mi Calm Calm - N/A   Clear
8:15 AM 30.2 °F - 24.8 °F 80% 30.43 in 10.0 mi Calm Calm - N/A   Clear
8:35 AM 30.2 °F 25.4 °F 26.6 °F 86% 30.43 in 10.0 mi ENE 4.6 mph - N/A   Clear
9:15 AM 32.0 °F 27.5 °F 26.6 °F 80% 30.44 in 10.0 mi East 4.6 mph - N/A   Clear
9:35 AM 33.8 °F 26.4 °F 26.6 °F 75% 30.43 in 10.0 mi ENE 9.2 mph - N/A   Clear
9:55 AM 35.6 °F 29.2 °F 26.6 °F 70% 30.43 in 10.0 mi East 8.1 mph - N/A   Clear
10:15 AM 35.6 °F 28.6 °F 26.6 °F 70% 30.43 in 10.0 mi ENE 9.2 mph - N/A   Clear
10:35 AM 37.4 °F 30.8 °F 26.6 °F 65% 30.43 in 10.0 mi ENE 9.2 mph - N/A   Clear
10:55 AM 37.4 °F 30.8 °F 26.6 °F 65% 30.42 in 10.0 mi NE 9.2 mph - N/A   Clear
11:15 AM 37.4 °F 32.1 °F 26.6 °F 65% 30.42 in 10.0 mi ENE 6.9 mph - N/A   Clear
11:35 AM 39.2 °F 35.0 °F 26.6 °F 61% 30.42 in 10.0 mi ENE 5.8 mph - N/A   Clear
11:55 AM 39.2 °F 33.6 °F 28.4 °F 65% 30.41 in 10.0 mi East 8.1 mph - N/A   Scattered Clouds
12:35 PM 41.0 °F 37.1 °F 28.4 °F 61% 30.41 in 10.0 mi ENE 5.8 mph - N/A   Scattered Clouds
12:55 PM 41.0 °F 36.4 °F 28.4 °F 61% 30.41 in 10.0 mi East 6.9 mph - N/A   Clear
1:15 PM 41.0 °F - 28.4 °F 61% 30.40 in 10.0 mi Calm Calm - N/A   Scattered Clouds
1:35 PM 42.8 °F - 28.4 °F 57% 30.40 in 10.0 mi Calm Calm - N/A   Clear
1:55 PM 42.8 °F 39.3 °F 28.4 °F 57% 30.40 in 10.0 mi North 5.8 mph - N/A   Clear
2:15 PM 44.6 °F 43.1 °F 28.4 °F 53% 30.38 in 10.0 mi North 3.5 mph - N/A   Clear
2:35 PM 44.6 °F 42.2 °F 28.4 °F 53% 30.38 in 10.0 mi ENE 4.6 mph - N/A   Clear
2:55 PM 44.6 °F 42.2 °F 28.4 °F 53% 30.38 in 10.0 mi North 4.6 mph - N/A   Clear
3:15 PM 44.6 °F 40.7 °F 28.4 °F 53% 30.37 in 10.0 mi NE 6.9 mph - N/A   Clear
3:35 PM 44.6 °F 42.2 °F 28.4 °F 53% 30.35 in 10.0 mi NE 4.6 mph - N/A   Clear
3:55 PM 46.4 °F 42.4 °F 28.4 °F 50% 30.35 in 10.0 mi NE 8.1 mph - N/A   Clear
4:15 PM 46.4 °F 42.4 °F 28.4 °F 50% 30.34 in 10.0 mi NE 8.1 mph - N/A   Clear
4:35 PM 46.4 °F 41.9 °F 28.4 °F 50% 30.34 in 10.0 mi NE 9.2 mph - N/A   Clear
4:55 PM 46.4 °F 42.9 °F 28.4 °F 50% 30.33 in 10.0 mi NE 6.9 mph - N/A   Clear
5:15 PM 46.4 °F 45.2 °F 28.4 °F 50% 30.33 in 10.0 mi East 3.5 mph - N/A   Clear
5:35 PM 44.6 °F 41.4 °F 28.4 °F 53% 30.33 in 10.0 mi ENE 5.8 mph - N/A   Clear
5:55 PM 44.6 °F 41.4 °F 28.4 °F 53% 30.33 in 10.0 mi NE 5.8 mph - N/A   Clear
6:15 PM 44.6 °F 41.4 °F 28.4 °F 53% 30.33 in 10.0 mi North 5.8 mph - N/A   Clear
6:35 PM 42.8 °F 39.3 °F 28.4 °F 57% 30.34 in 10.0 mi NNE 5.8 mph - N/A   Clear
6:55 PM 41.0 °F 38.0 °F 28.4 °F 61% 30.34 in 10.0 mi NNE 4.6 mph - N/A   Clear
7:15 PM 41.0 °F 39.0 °F 28.4 °F 61% 30.35 in 10.0 mi NNE 3.5 mph - N/A   Clear
7:35 PM 39.2 °F 35.0 °F 28.4 °F 65% 30.34 in 10.0 mi NE 5.8 mph - N/A   Clear
7:55 PM 39.2 °F 37.0 °F 28.4 °F 65% 30.35 in 10.0 mi NE 3.5 mph - N/A   Clear
8:15 PM 39.2 °F - 28.4 °F 65% 30.36 in 10.0 mi Calm Calm - N/A   Clear
8:35 PM 39.2 °F 37.0 °F 28.4 °F 65% 30.36 in 10.0 mi NE 3.5 mph - N/A   Clear
9:15 PM 35.6 °F 29.9 °F 28.4 °F 75% 30.34 in 10.0 mi ENE 6.9 mph - N/A   Clear
9:35 PM 35.6 °F 31.7 °F 28.4 °F 75% 30.35 in 10.0 mi NE 4.6 mph - N/A   Clear
9:55 PM 35.6 °F 30.7 °F 28.4 °F 75% 30.36 in 10.0 mi ENE 5.8 mph - N/A   Clear
10:15 PM 35.6 °F 32.8 °F 28.4 °F 75% 30.36 in 10.0 mi NE 3.5 mph - N/A   Clear
10:35 PM 35.6 °F - 28.4 °F 75% 30.37 in 10.0 mi Calm Calm - N/A   Clear
10:55 PM 35.6 °F 32.8 °F 28.4 °F 75% 30.37 in 10.0 mi ENE 3.5 mph - N/A   Clear
11:15 PM 33.8 °F 29.6 °F 28.4 °F 81% 30.35 in 10.0 mi East 4.6 mph - N/A   Clear
11:35 PM 33.8 °F 29.6 °F 28.4 °F 81% 30.35 in 10.0 mi East 4.6 mph - N/A   Clear